TimeCST,TemperatureF,Dew PointF,Humidity,Sea Level PressureIn,VisibilityMPH,Wind Direction,Wind SpeedMPH,Gust SpeedMPH,PrecipitationIn,Events,Conditions,WindDirDegrees,DateUTC
12:12 AM,-5.8,-11.2,77,30.08,10.0,SSW,6.9,-,N/A,,Clear,200,2014-01-29 06:12:00
12:33 AM,-5.8,-11.2,77,30.08,10.0,SW,4.6,-,N/A,,Clear,220,2014-01-29 06:33:00
12:52 AM,-4.0,-9.4,78,30.08,10.0,SSW,6.9,-,N/A,,Clear,210,2014-01-29 06:52:00
1:12 AM,-4.0,-9.4,78,30.07,10.0,SSW,6.9,-,N/A,,Clear,210,2014-01-29 07:12:00
1:33 AM,-4.0,-9.4,78,30.07,10.0,SW,6.9,-,N/A,,Clear,220,2014-01-29 07:33:00
1:52 AM,-4.0,-9.4,78,30.06,10.0,WSW,4.6,-,N/A,,Clear,240,2014-01-29 07:52:00
2:12 AM,-4.0,-9.4,78,30.06,10.0,SW,5.8,-,N/A,,Clear,220,2014-01-29 08:12:00
2:33 AM,-2.2,-9.4,71,30.05,10.0,SW,8.1,-,N/A,,Clear,230,2014-01-29 08:33:00
2:52 AM,-2.2,-9.4,71,30.04,10.0,SW,6.9,-,N/A,,Clear,230,2014-01-29 08:52:00
3:13 AM,-2.2,-9.4,71,30.04,10.0,SW,6.9,-,N/A,,Clear,230,2014-01-29 09:13:00
3:33 AM,-2.2,-9.4,71,30.02,10.0,SW,8.1,-,N/A,,Clear,220,2014-01-29 09:33:00
3:52 AM,-2.2,-9.4,71,30.02,10.0,SW,9.2,-,N/A,,Clear,220,2014-01-29 09:52:00
4:13 AM,-2.2,-9.4,71,30.02,10.0,SW,6.9,-,N/A,,Clear,220,2014-01-29 10:13:00
4:32 AM,-2.2,-9.4,71,30.01,10.0,SSW,4.6,-,N/A,,Clear,210,2014-01-29 10:32:00
4:53 AM,-2.2,-9.4,71,30.00,10.0,SW,6.9,-,N/A,,Clear,220,2014-01-29 10:53:00
5:13 AM,-0.4,-7.6,72,29.99,10.0,SW,9.2,-,N/A,,Clear,220,2014-01-29 11:13:00
5:32 AM,-0.4,-7.6,72,29.97,10.0,SSW,15.0,-,N/A,,Clear,210,2014-01-29 11:32:00
5:53 AM,1.4,-7.6,66,29.96,10.0,SSW,13.8,-,N/A,,Clear,210,2014-01-29 11:53:00
6:13 AM,1.4,-5.8,72,29.95,10.0,SSW,13.8,-,N/A,,Clear,210,2014-01-29 12:13:00
6:32 AM,1.4,-5.8,72,29.94,10.0,SSW,13.8,-,N/A,,Clear,200,2014-01-29 12:32:00
6:53 AM,1.4,-5.8,72,29.94,10.0,SSW,13.8,-,N/A,,Clear,200,2014-01-29 12:53:00
7:12 AM,1.4,-5.8,72,29.93,10.0,SSW,12.7,-,N/A,,Clear,200,2014-01-29 13:12:00
7:32 AM,1.4,-5.8,72,29.92,10.0,SSW,15.0,-,N/A,,Clear,210,2014-01-29 13:32:00
7:52 AM,3.2,-5.8,66,29.91,10.0,SSW,13.8,-,N/A,,Clear,210,2014-01-29 13:52:00
8:12 AM,3.2,-5.8,66,29.92,10.0,SSW,12.7,-,N/A,,Clear,200,2014-01-29 14:12:00
8:33 AM,3.2,-5.8,66,29.91,10.0,SSW,12.7,-,N/A,,Clear,200,2014-01-29 14:33:00
8:52 AM,5.0,-5.8,61,29.90,10.0,SSW,11.5,-,N/A,,Clear,200,2014-01-29 14:52:00
9:12 AM,6.8,-4.0,61,29.88,10.0,South,9.2,17.3,N/A,,Clear,180,2014-01-29 15:12:00
9:33 AM,6.8,-2.2,67,29.87,10.0,South,12.7,-,N/A,,Clear,190,2014-01-29 15:33:00
9:52 AM,10.4,-0.4,62,29.88,10.0,SSW,13.8,-,N/A,,Clear,200,2014-01-29 15:52:00
10:12 AM,12.2,1.4,62,29.88,10.0,SSW,11.5,-,N/A,,Clear,200,2014-01-29 16:12:00
10:33 AM,15.8,3.2,58,29.86,10.0,SSW,11.5,-,N/A,,Clear,200,2014-01-29 16:33:00
10:52 AM,17.6,6.8,63,29.85,10.0,South,12.7,-,N/A,,Clear,190,2014-01-29 16:52:00
11:12 AM,19.4,6.8,58,29.83,10.0,South,11.5,-,N/A,,Clear,180,2014-01-29 17:12:00
11:33 AM,21.2,8.6,58,29.81,10.0,South,13.8,18.4,N/A,,Clear,190,2014-01-29 17:33:00
11:52 AM,24.8,10.4,54,29.79,10.0,South,16.1,21.9,N/A,,Clear,180,2014-01-29 17:52:00
12:12 PM,26.6,10.4,51,29.77,10.0,South,16.1,23.0,N/A,,Clear,190,2014-01-29 18:12:00
12:32 PM,28.4,10.4,47,29.75,10.0,South,16.1,27.6,N/A,,Clear,180,2014-01-29 18:32:00
12:52 PM,28.4,10.4,47,29.73,10.0,South,17.3,25.3,N/A,,Clear,190,2014-01-29 18:52:00
1:12 PM,30.2,12.2,47,29.71,10.0,South,18.4,26.5,N/A,,Clear,190,2014-01-29 19:12:00
1:32 PM,30.2,14.0,51,29.69,10.0,South,20.7,25.3,N/A,,Clear,190,2014-01-29 19:32:00
1:53 PM,32.0,15.8,51,29.67,10.0,South,19.6,28.8,N/A,,Clear,190,2014-01-29 19:53:00
2:12 PM,33.8,15.8,48,29.65,10.0,South,18.4,26.5,N/A,,Clear,190,2014-01-29 20:12:00
2:32 PM,35.6,15.8,44,29.64,10.0,South,18.4,26.5,N/A,,Clear,190,2014-01-29 20:32:00
2:53 PM,35.6,15.8,44,29.63,10.0,South,23.0,32.2,N/A,,Clear,190,2014-01-29 20:53:00
3:12 PM,35.6,15.8,44,29.62,10.0,SSW,24.2,32.2,N/A,,Clear,200,2014-01-29 21:12:00
3:32 PM,33.8,17.6,52,29.62,10.0,South,18.4,27.6,N/A,,Clear,190,2014-01-29 21:32:00
3:53 PM,35.6,17.6,48,29.61,10.0,South,18.4,25.3,N/A,,Scattered Clouds,190,2014-01-29 21:53:00
4:12 PM,35.6,17.6,48,29.61,10.0,South,16.1,21.9,N/A,,Scattered Clouds,190,2014-01-29 22:12:00
4:32 PM,35.6,17.6,48,29.61,10.0,South,15.0,20.7,N/A,,Scattered Clouds,190,2014-01-29 22:32:00
4:53 PM,35.6,17.6,48,29.60,10.0,SSW,16.1,24.2,N/A,,Mostly Cloudy,200,2014-01-29 22:53:00
5:12 PM,35.6,17.6,48,29.59,10.0,SSW,18.4,-,N/A,,Scattered Clouds,200,2014-01-29 23:12:00
5:32 PM,33.8,17.6,52,29.58,10.0,South,12.7,19.6,N/A,,Clear,190,2014-01-29 23:32:00
5:53 PM,33.8,17.6,52,29.58,10.0,South,12.7,20.7,N/A,,Clear,190,2014-01-29 23:53:00
6:13 PM,33.8,17.6,52,29.58,10.0,South,12.7,19.6,N/A,,Clear,190,2014-01-30 00:13:00
6:33 PM,32.0,17.6,55,29.58,10.0,South,13.8,17.3,N/A,,Clear,190,2014-01-30 00:33:00
6:53 PM,32.0,17.6,55,29.58,10.0,SSW,12.7,17.3,N/A,,Clear,200,2014-01-30 00:53:00
7:12 PM,30.2,17.6,60,29.58,10.0,SSW,11.5,-,N/A,,Scattered Clouds,200,2014-01-30 01:12:00
7:33 PM,30.2,17.6,60,29.58,10.0,SSW,12.7,-,N/A,,Clear,200,2014-01-30 01:33:00
7:52 PM,30.2,15.8,55,29.58,10.0,SSW,12.7,-,N/A,,Clear,200,2014-01-30 01:52:00
8:13 PM,28.4,15.8,59,29.57,10.0,SSW,9.2,-,N/A,,Clear,200,2014-01-30 02:13:00
8:32 PM,28.4,15.8,59,29.56,10.0,SSW,9.2,-,N/A,,Clear,200,2014-01-30 02:32:00
8:52 PM,28.4,15.8,59,29.55,10.0,South,9.2,-,N/A,,Clear,190,2014-01-30 02:52:00
9:13 PM,28.4,15.8,59,29.54,10.0,South,9.2,-,N/A,,Clear,190,2014-01-30 03:13:00
9:32 PM,30.2,15.8,55,29.53,10.0,South,8.1,-,N/A,,Clear,190,2014-01-30 03:32:00
9:52 PM,30.2,15.8,55,29.52,10.0,South,11.5,17.3,N/A,,Clear,190,2014-01-30 03:52:00
10:13 PM,30.2,15.8,55,29.52,10.0,South,13.8,-,N/A,,Clear,190,2014-01-30 04:13:00
10:32 PM,30.2,15.8,55,29.50,10.0,South,12.7,-,N/A,,Clear,190,2014-01-30 04:32:00
10:52 PM,30.2,15.8,55,29.49,10.0,South,11.5,-,N/A,,Clear,190,2014-01-30 04:52:00
11:13 PM,30.2,15.8,55,29.48,10.0,South,12.7,18.4,N/A,,Clear,190,2014-01-30 05:13:00
11:32 PM,30.2,15.8,55,29.47,10.0,South,13.8,-,N/A,,Scattered Clouds,180,2014-01-30 05:32:00
11:52 PM,32.0,17.6,55,29.47,10.0,South,13.8,18.4,N/A,,Overcast,190,2014-01-30 05:52:00